M I D A S
Marine Information and Data Acquisition System
Tripno 1069 of the Zeeleeuw from 2006-04-10 07:21:34 to 2006-04-10 13:24:46
Back to CruiseResearch ActivitiesStationsMapUnderway DataData graphs

EquipmentUnitsComments
TimeDGPSUTC
LatitudeDGPSDM.mWGS84
LongitudeDGPSDM.mWGS84
SpeedMeteo Stationm/sRelative wind speed
DirectionMeteo StationdegRelative wind direction
TemperatureMeteo Stationdeg CelciusAir temperature
PressureMeteo StationPaAtmospheric pressure
HumidityMeteo Station%Relative humidity
Missing or incorrect values are displayed as -999
Metereological data collected by the RV Zeeleeuw from 2006-04-10 07:21:20 to 2006-04-10 13:38:36
                                                                                    Next 1000 lines
Time Latitude Longitude Speed Direction Temperature Pressure Humidity
2006-04-10 07:21:29 51°13.601 2°56.096 -999 35 6 101810 68
2006-04-10 07:21:34 51°13.601 2°56.093 -999 265 6 101810 68
2006-04-10 07:21:40 51°13.602 2°56.09 -999 -999 6 101810 68
2006-04-10 07:21:44 51°13.602 2°56.087 -999 280 6 101830 68
2006-04-10 07:21:50 51°13.604 2°56.082 -999 252 6 101830 68
2006-04-10 07:21:55 51°13.605 2°56.077 -999 273 6 101820 68
2006-04-10 07:22:00 51°13.606 2°56.072 -999 259 6 101820 68
2006-04-10 07:22:05 51°13.608 2°56.066 -999 256 6 101830 67
2006-04-10 07:22:10 51°13.609 2°56.06 -999 247 6 101830 67
2006-04-10 07:22:15 51°13.611 2°56.054 -999 252 6 101830 67
2006-04-10 07:22:20 51°13.612 2°56.046 -999 259 6 101830 67
2006-04-10 07:22:25 51°13.614 2°56.039 -999 249 6 101830 67
2006-04-10 07:22:30 51°13.615 2°56.031 -999 264 6 101830 67
2006-04-10 07:22:35 51°13.617 2°56.023 -999 265 6 101830 67
2006-04-10 07:22:40 51°13.619 2°56.014 -999 243 6 101830 67
2006-04-10 07:22:45 51°13.621 2°56.006 -999 253 6 101820 68
2006-04-10 07:22:50 51°13.623 2°55.997 -999 243 6 101820 68
2006-04-10 07:22:54 51°13.625 2°55.989 -999 269 6 101840 68
2006-04-10 07:23:00 51°13.628 2°55.978 -999 256 6 101840 68
2006-04-10 07:23:05 51°13.63 2°55.968 -999 249 6 101820 68
2006-04-10 07:23:10 51°13.632 2°55.959 -999 207 6 101820 68
2006-04-10 07:23:14 51°13.634 2°55.951 -999 215 6 101820 68
2006-04-10 07:23:20 51°13.638 2°55.939 -999 231 6 101820 68
2006-04-10 07:23:25 51°13.64 2°55.93 -999 241 6 101820 68
2006-04-10 07:23:30 51°13.643 2°55.921 -999 240 6 101820 68
2006-04-10 07:23:35 51°13.646 2°55.912 -999 242 6 101810 68
2006-04-10 07:23:40 51°13.649 2°55.903 -999 238 6 101810 68
2006-04-10 07:23:45 51°13.652 2°55.895 -999 252 6 101830 68
2006-04-10 07:23:50 51°13.655 2°55.887 -999 240 6 101830 68
2006-04-10 07:23:55 51°13.658 2°55.879 -999 234 6 101830 68
2006-04-10 07:24:00 51°13.66 2°55.871 -999 237 6 101830 68
2006-04-10 07:24:05 51°13.664 2°55.863 -999 245 6 101820 68
2006-04-10 07:24:10 51°13.667 2°55.855 -999 246 6 101820 68
2006-04-10 07:24:15 51°13.67 2°55.847 -999 239 6 101820 68
2006-04-10 07:24:20 51°13.674 2°55.839 -999 242 6 101820 68
2006-04-10 07:24:25 51°13.678 2°55.831 -999 236 6 101820 68
2006-04-10 07:24:30 51°13.682 2°55.822 -999 236 6 101820 68
2006-04-10 07:24:34 51°13.685 2°55.816 -999 237 6 101830 68
2006-04-10 07:24:40 51°13.69 2°55.806 -999 237 6 101830 68
2006-04-10 07:24:45 51°13.693 2°55.799 -999 245 6 101820 68
2006-04-10 07:24:50 51°13.697 2°55.791 -999 244 6 101820 68
2006-04-10 07:24:55 51°13.7 2°55.783 -999 226 6 101830 69
2006-04-10 07:25:00 51°13.703 2°55.776 -999 235 6 101830 69
2006-04-10 07:25:05 51°13.706 2°55.768 -999 239 6 101820 68
2006-04-10 07:25:10 51°13.709 2°55.761 -999 237 6 101820 68
2006-04-10 07:25:15 51°13.712 2°55.754 -999 230 6 101830 68
2006-04-10 07:25:20 51°13.714 2°55.748 -999 257 6 101830 68
2006-04-10 07:25:25 51°13.716 2°55.743 -999 238 6 101830 68
2006-04-10 07:25:30 51°13.718 2°55.738 -999 248 6 101830 68
2006-04-10 07:25:35 51°13.719 2°55.735 -999 251 6 101820 68
2006-04-10 07:25:40 51°13.719 2°55.733 -999 246 6 101820 68
2006-04-10 07:25:45 51°13.72 2°55.732 -999 271 6 101830 68
2006-04-10 07:25:50 51°13.72 2°55.733 -999 275 6 101830 68
2006-04-10 07:25:55 51°13.72 2°55.734 -999 250 6 101830 68
2006-04-10 07:26:00 51°13.72 2°55.735 -999 279 6 101830 68
2006-04-10 07:26:05 51°13.72 2°55.737 -999 304 6 101820 68
2006-04-10 07:26:10 51°13.719 2°55.739 -999 297 6 101820 68
2006-04-10 07:26:14 51°13.72 2°55.741 -999 294 6 101820 69
2006-04-10 07:26:20 51°13.72 2°55.745 -999 299 6 101820 69
2006-04-10 07:26:25 51°13.72 2°55.747 -999 307 6 101820 69
2006-04-10 07:26:30 51°13.72 2°55.748 -999 292 6 101820 69
2006-04-10 07:26:35 51°13.72 2°55.749 -999 318 6 101820 69
2006-04-10 07:26:40 51°13.72 2°55.749 -999 312 6 101820 69
2006-04-10 07:26:45 51°13.719 2°55.748 -999 292 6 101820 69
2006-04-10 07:26:50 51°13.719 2°55.747 -999 276 6 101820 69
2006-04-10 07:26:55 51°13.718 2°55.744 -999 278 6 101820 69
2006-04-10 07:27:00 51°13.717 2°55.74 -999 271 6 101820 69
2006-04-10 07:27:05 51°13.716 2°55.736 -999 281 6 101820 69
2006-04-10 07:27:10 51°13.715 2°55.732 -999 295 6 101820 69
2006-04-10 07:27:14 51°13.715 2°55.728 -999 291 6 101810 69
2006-04-10 07:27:20 51°13.714 2°55.724 -999 269 6 101810 69
2006-04-10 07:27:25 51°13.713 2°55.721 -999 290 6 101830 69
2006-04-10 07:27:30 51°13.713 2°55.72 -999 283 6 101830 69
2006-04-10 07:27:34 51°13.713 2°55.72 -999 323 6 101820 68
2006-04-10 07:27:40 51°13.713 2°55.722 -999 42 6 101820 68
2006-04-10 07:27:45 51°13.714 2°55.725 -999 340 6 101820 68
2006-04-10 07:27:50 51°13.716 2°55.728 -999 354 6 101820 68
2006-04-10 07:27:55 51°13.718 2°55.732 -999 330 6 101820 68
2006-04-10 07:28:00 51°13.72 2°55.735 -999 357 6 101820 68
2006-04-10 07:28:05 51°13.722 2°55.738 -999 335 6 101810 68
2006-04-10 07:28:10 51°13.723 2°55.741 -999 324 6 101810 68
2006-04-10 07:28:15 51°13.724 2°55.743 -999 346 6 101810 68
2006-04-10 07:28:20 51°13.725 2°55.743 -999 7 6 101810 68
2006-04-10 07:28:25 51°13.724 2°55.743 -999 348 6 101810 68
2006-04-10 07:28:30 51°13.723 2°55.743 -999 335 6 101810 68
2006-04-10 07:28:34 51°13.722 2°55.743 -999 331 6 101810 68
2006-04-10 07:28:40 51°13.72 2°55.741 -999 349 6 101810 68
2006-04-10 07:28:45 51°13.717 2°55.739 -999 2 6 101810 68
2006-04-10 07:28:50 51°13.715 2°55.737 -999 355 6 101810 68
2006-04-10 07:28:55 51°13.712 2°55.736 -999 354 6 101820 68
2006-04-10 07:29:00 51°13.71 2°55.734 -999 16 6 101820 68
2006-04-10 07:29:05 51°13.708 2°55.733 -999 317 6 101820 68
2006-04-10 07:29:10 51°13.707 2°55.732 -999 5 6 101820 68
2006-04-10 07:29:15 51°13.706 2°55.731 -999 4 6 101820 68
2006-04-10 07:29:20 51°13.706 2°55.731 -999 357 6 101820 68
2006-04-10 07:29:25 51°13.706 2°55.731 -999 319 6 101820 68
2006-04-10 07:29:30 51°13.707 2°55.732 -999 -999 6 101820 68
2006-04-10 07:29:35 51°13.709 2°55.732 -999 2 6 101820 68
2006-04-10 07:29:40 51°13.711 2°55.732 -999 21 6 101820 68
2006-04-10 07:29:45 51°13.714 2°55.732 -999 32 6 101820 68
2006-04-10 07:29:50 51°13.717 2°55.731 -999 17 6 101820 68
2006-04-10 07:29:55 51°13.721 2°55.729 -999 30 6 101820 68
2006-04-10 07:30:00 51°13.725 2°55.726 -999 52 6 101820 68
2006-04-10 07:30:05 51°13.73 2°55.722 -999 33 6 101820 68
2006-04-10 07:30:10 51°13.735 2°55.716 -999 56 6 101820 68
2006-04-10 07:30:15 51°13.74 2°55.711 -999 46 6 101820 68
2006-04-10 07:30:20 51°13.745 2°55.705 -999 60 6 101820 68
2006-04-10 07:30:25 51°13.751 2°55.698 -999 36 6 101820 67
2006-04-10 07:30:30 51°13.757 2°55.692 -999 25 6 101820 67
2006-04-10 07:30:34 51°13.762 2°55.687 -999 32 6 101820 67
2006-04-10 07:30:40 51°13.77 2°55.68 -999 39 6 101820 67
2006-04-10 07:30:45 51°13.777 2°55.673 -999 42 6 101820 67
2006-04-10 07:30:50 51°13.784 2°55.667 -999 40 6 101820 67
2006-04-10 07:30:55 51°13.791 2°55.66 -999 39 6 101820 67
2006-04-10 07:31:00 51°13.799 2°55.654 -999 20 6 101820 67
2006-04-10 07:31:05 51°13.806 2°55.648 -999 28 6 101820 67
2006-04-10 07:31:10 51°13.814 2°55.641 -999 22 6 101820 67
2006-04-10 07:31:15 51°13.821 2°55.635 -999 32 5.9 101810 67
2006-04-10 07:31:20 51°13.829 2°55.629 -999 25 5.9 101810 67
2006-04-10 07:31:25 51°13.837 2°55.623 -999 22 5.9 101820 67
2006-04-10 07:31:30 51°13.845 2°55.617 -999 33 5.9 101820 67
2006-04-10 07:31:35 51°13.853 2°55.611 -999 43 6 101820 68
2006-04-10 07:31:40 51°13.861 2°55.606 -999 44 6 101820 68
2006-04-10 07:31:45 51°13.869 2°55.6 -999 48 6 101820 68
2006-04-10 07:31:50 51°13.876 2°55.594 -999 31 6 101820 68
2006-04-10 07:31:55 51°13.884 2°55.589 -999 42 6 101820 68
2006-04-10 07:32:00 51°13.891 2°55.583 -999 41 6 101820 68
2006-04-10 07:32:05 51°13.899 2°55.577 -999 33 6 101820 67
2006-04-10 07:32:10 51°13.906 2°55.572 -999 38 6 101820 67
2006-04-10 07:32:15 51°13.914 2°55.566 -999 32 6 101820 67
2006-04-10 07:32:20 51°13.921 2°55.561 -999 28 6 101820 67
2006-04-10 07:32:24 51°13.927 2°55.557 -999 38 6 101820 67
2006-04-10 07:32:30 51°13.936 2°55.55 -999 40 6 101820 67
2006-04-10 07:32:35 51°13.943 2°55.545 -999 37 6 101820 67
2006-04-10 07:32:40 51°13.95 2°55.54 -999 37 6 101820 67
2006-04-10 07:32:45 51°13.958 2°55.534 -999 24 5.9 101820 67
2006-04-10 07:32:50 51°13.965 2°55.529 -999 40 5.9 101820 67
2006-04-10 07:32:54 51°13.972 2°55.524 -999 38 5.9 101820 66
2006-04-10 07:33:00 51°13.982 2°55.517 -999 40 5.9 101820 66
2006-04-10 07:33:05 51°13.991 2°55.51 -999 37 5.9 101820 67
2006-04-10 07:33:10 51°14.001 2°55.503 -999 31 5.9 101820 67
2006-04-10 07:33:14 51°14.009 2°55.497 -999 30 5.9 101820 67
2006-04-10 07:33:20 51°14.021 2°55.488 -999 35 5.9 101820 67
2006-04-10 07:33:25 51°14.031 2°55.481 -999 34 5.9 101820 67
2006-04-10 07:33:30 51°14.042 2°55.474 -999 36 5.9 101820 67
2006-04-10 07:33:34 51°14.051 2°55.468 -999 33 5.9 101810 66
2006-04-10 07:33:40 51°14.065 2°55.458 -999 38 5.9 101810 66
2006-04-10 07:33:45 51°14.076 2°55.45 -999 35 5.9 101820 67
2006-04-10 07:33:50 51°14.087 2°55.442 -999 38 5.9 101820 67
2006-04-10 07:33:55 51°14.099 2°55.434 -999 39 5.9 101820 67
2006-04-10 07:33:59 51°14.108 2°55.427 -999 39 5.9 101820 67
2006-04-10 07:34:04 51°14.119 2°55.418 -999 39 5.9 101810 67
2006-04-10 07:34:10 51°14.133 2°55.407 -999 34 5.9 101810 67
2006-04-10 07:34:15 51°14.145 2°55.398 -999 34 5.9 101820 68
2006-04-10 07:34:20 51°14.156 2°55.388 -999 40 5.9 101820 68
2006-04-10 07:34:25 51°14.168 2°55.378 -999 38 5.9 101810 67
2006-04-10 07:34:30 51°14.179 2°55.368 -999 37 5.9 101810 67
2006-04-10 07:34:34 51°14.188 2°55.359 -999 48 5.9 101810 68
2006-04-10 07:34:40 51°14.201 2°55.345 -999 -999 5.9 101810 68
2006-04-10 07:34:45 51°14.212 2°55.332 -999 54 6 101810 68
2006-04-10 07:34:50 51°14.222 2°55.32 -999 56 6 101810 68
2006-04-10 07:34:55 51°14.232 2°55.307 -999 61 5.9 101820 67
2006-04-10 07:35:00 51°14.242 2°55.293 -999 54 5.9 101820 67
2006-04-10 07:35:05 51°14.251 2°55.278 -999 65 5.9 101820 67
2006-04-10 07:35:10 51°14.261 2°55.262 -999 60 5.9 101820 67
2006-04-10 07:35:15 51°14.27 2°55.245 -999 56 5.9 101810 67
2006-04-10 07:35:20 51°14.278 2°55.229 -999 64 5.9 101810 67
2006-04-10 07:35:25 51°14.288 2°55.212 -999 53 5.9 101810 67
2006-04-10 07:35:30 51°14.297 2°55.196 -999 54 5.9 101810 67
2006-04-10 07:35:35 51°14.307 2°55.179 -999 55 5.9 101820 68
2006-04-10 07:35:40 51°14.316 2°55.162 -999 59 5.9 101820 68
2006-04-10 07:35:45 51°14.326 2°55.144 -999 57 6 101820 68
2006-04-10 07:35:50 51°14.334 2°55.127 -999 58 6 101820 68
2006-04-10 07:35:54 51°14.341 2°55.113 -999 35 6 101820 69
2006-04-10 07:36:00 51°14.353 2°55.09 -999 58 6 101820 69
2006-04-10 07:36:05 51°14.361 2°55.074 -999 54 6 101820 70
2006-04-10 07:36:10 51°14.372 2°55.057 -999 50 6 101820 70
2006-04-10 07:36:14 51°14.379 2°55.045 -999 53 6 101820 70
2006-04-10 07:36:18 51°14.387 2°55.031 -999 57 6 101820 70
2006-04-10 07:36:24 51°14.398 2°55.012 -999 47 6 101810 71
2006-04-10 07:36:30 51°14.411 2°54.991 -999 50 6 101810 71
2006-04-10 07:36:34 51°14.419 2°54.978 -999 49 6 101800 71
2006-04-10 07:36:38 51°14.427 2°54.965 -999 48 6 101800 71
2006-04-10 07:36:44 51°14.44 2°54.946 -999 41 6 101790 71
2006-04-10 07:36:50 51°14.454 2°54.927 -999 43 6 101790 71
2006-04-10 07:36:54 51°14.463 2°54.916 -999 41 6 101810 71
2006-04-10 07:37:00 51°14.477 2°54.898 -999 44 6 101810 71
2006-04-10 07:37:04 51°14.487 2°54.887 -999 44 6 101790 70
2006-04-10 07:37:10 51°14.501 2°54.871 -999 44 6 101790 70
2006-04-10 07:37:14 51°14.511 2°54.859 -999 45 6 101790 69
2006-04-10 07:37:20 51°14.527 2°54.842 -999 44 6 101790 69
2006-04-10 07:37:24 51°14.537 2°54.83 -999 42 6 101790 68
2006-04-10 07:37:29 51°14.551 2°54.815 -999 44 6 101790 68
2006-04-10 07:37:34 51°14.565 2°54.8 -999 34 6 101800 68
2006-04-10 07:37:40 51°14.581 2°54.782 -999 40 6 101800 68
2006-04-10 07:37:44 51°14.592 2°54.77 -999 42 6 101790 68
2006-04-10 07:37:50 51°14.609 2°54.75 -999 42 6 101790 68
2006-04-10 07:37:54 51°14.619 2°54.737 -999 40 6 101800 70
2006-04-10 07:38:00 51°14.636 2°54.719 -999 39 6 101800 70
2006-04-10 07:38:04 51°14.647 2°54.705 -999 43 6 101790 68
2006-04-10 07:38:09 51°14.662 2°54.69 -999 41 6 101790 68
2006-04-10 07:38:14 51°14.675 2°54.675 -999 43 5.9 101790 68
2006-04-10 07:38:19 51°14.69 2°54.659 -999 43 5.9 101790 68
2006-04-10 07:38:25 51°14.706 2°54.641 -999 42 5.9 101810 68
2006-04-10 07:38:30 51°14.72 2°54.626 -999 41 5.9 101810 68
2006-04-10 07:38:34 51°14.731 2°54.614 -999 41 5.9 101800 68
2006-04-10 07:38:40 51°14.749 2°54.594 -999 41 5.9 101800 68
2006-04-10 07:38:44 51°14.76 2°54.582 -999 44 5.9 101810 67
2006-04-10 07:38:50 51°14.775 2°54.565 -999 40 5.9 101810 67
2006-04-10 07:38:55 51°14.791 2°54.549 -999 41 5.9 101810 66
2006-04-10 07:39:00 51°14.805 2°54.535 -999 40 5.9 101810 66
2006-04-10 07:39:04 51°14.815 2°54.522 -999 33 5.9 101800 67
2006-04-10 07:39:10 51°14.833 2°54.504 -999 37 5.9 101800 67
2006-04-10 07:39:14 51°14.844 2°54.492 -999 38 5.9 101810 67
2006-04-10 07:39:18 51°14.855 2°54.48 -999 38 5.9 101810 67
2006-04-10 07:39:24 51°14.872 2°54.46 -999 39 6 101800 69
2006-04-10 07:39:30 51°14.889 2°54.441 -999 39 6 101800 69
2006-04-10 07:39:34 51°14.9 2°54.428 -999 42 6 101800 69
2006-04-10 07:39:40 51°14.916 2°54.409 -999 42 6 101800 69
2006-04-10 07:39:44 51°14.928 2°54.397 -999 43 6 101810 69
2006-04-10 07:39:50 51°14.944 2°54.379 -999 40 6 101810 69
2006-04-10 07:39:54 51°14.956 2°54.367 -999 42 5.9 101790 68
2006-04-10 07:40:00 51°14.973 2°54.347 -999 41 5.9 101790 68
2006-04-10 07:40:04 51°14.984 2°54.334 -999 41 5.9 101790 67
2006-04-10 07:40:10 51°15 2°54.316 -999 40 5.9 101790 67
2006-04-10 07:40:14 51°15.011 2°54.303 -999 41 5.9 101810 67
2006-04-10 07:40:20 51°15.029 2°54.284 -999 44 5.9 101810 67
2006-04-10 07:40:25 51°15.042 2°54.27 -999 32 5.9 101800 66
2006-04-10 07:40:30 51°15.055 2°54.255 -999 39 5.9 101800 66
2006-04-10 07:40:35 51°15.069 2°54.239 -999 41 5.9 101820 66
2006-04-10 07:40:40 51°15.083 2°54.224 -999 39 5.9 101820 66
2006-04-10 07:40:45 51°15.097 2°54.208 -999 39 5.9 101800 66
2006-04-10 07:40:50 51°15.111 2°54.192 -999 40 5.9 101800 66
2006-04-10 07:40:54 51°15.123 2°54.18 -999 41 5.9 101820 66
2006-04-10 07:40:59 51°15.136 2°54.165 -999 41 5.9 101820 66
2006-04-10 07:41:04 51°15.151 2°54.15 -999 44 5.9 101810 65
2006-04-10 07:41:10 51°15.168 2°54.131 -999 38 5.9 101810 65
2006-04-10 07:41:14 51°15.18 2°54.12 -999 43 5.9 101800 65
2006-04-10 07:41:20 51°15.197 2°54.102 -999 42 5.9 101800 65
2006-04-10 07:41:24 51°15.208 2°54.09 -999 44 5.9 101800 64
2006-04-10 07:41:30 51°15.225 2°54.072 -999 40 5.9 101800 64
2006-04-10 07:41:35 51°15.239 2°54.057 -999 43 5.9 101800 65
2006-04-10 07:41:40 51°15.254 2°54.041 -999 39 5.9 101800 65
2006-04-10 07:41:44 51°15.265 2°54.03 -999 38 5.9 101810 66
2006-04-10 07:41:50 51°15.282 2°54.011 -999 39 5.9 101810 66
2006-04-10 07:41:54 51°15.294 2°53.999 -999 41 6 101810 66
2006-04-10 07:42:00 51°15.311 2°53.981 -999 41 6 101810 66
2006-04-10 07:42:05 51°15.326 2°53.966 -999 38 6 101810 67
2006-04-10 07:42:10 51°15.34 2°53.952 -999 41 6 101810 67
2006-04-10 07:42:14 51°15.352 2°53.941 -999 41 6 101800 66
2006-04-10 07:42:20 51°15.369 2°53.923 -999 41 6 101800 66
2006-04-10 07:42:25 51°15.384 2°53.909 -999 42 5.9 101800 64
2006-04-10 07:42:30 51°15.398 2°53.894 -999 40 5.9 101800 64
2006-04-10 07:42:34 51°15.41 2°53.881 -999 41 5.9 101800 64
2006-04-10 07:42:40 51°15.426 2°53.863 -999 38 5.9 101800 64
2006-04-10 07:42:45 51°15.44 2°53.847 -999 44 5.9 101810 64
2006-04-10 07:42:50 51°15.454 2°53.83 -999 45 5.9 101810 64
2006-04-10 07:42:54 51°15.464 2°53.817 -999 40 5.9 101810 64
2006-04-10 07:43:00 51°15.48 2°53.798 -999 37 5.9 101810 64
2006-04-10 07:43:04 51°15.492 2°53.784 -999 38 6 101800 64
2006-04-10 07:43:10 51°15.507 2°53.765 -999 43 6 101800 64
2006-04-10 07:43:14 51°15.519 2°53.753 -999 42 6 101800 64
2006-04-10 07:43:20 51°15.536 2°53.735 -999 44 6 101800 64
2006-04-10 07:43:24 51°15.547 2°53.723 -999 42 6 101810 65
2006-04-10 07:43:30 51°15.564 2°53.705 -999 42 6 101810 65
2006-04-10 07:43:34 51°15.575 2°53.694 -999 42 5.9 101820 63
2006-04-10 07:43:40 51°15.591 2°53.676 -999 39 5.9 101820 63
2006-04-10 07:43:45 51°15.606 2°53.662 -999 36 5.9 101810 63
2006-04-10 07:43:50 51°15.62 2°53.647 -999 39 5.9 101810 63
2006-04-10 07:43:54 51°15.632 2°53.635 -999 40 6 101800 65
2006-04-10 07:44:00 51°15.648 2°53.619 -999 38 6 101800 65
2006-04-10 07:44:04 51°15.66 2°53.608 -999 36 6 101810 67
2006-04-10 07:44:09 51°15.675 2°53.594 -999 33 6 101810 67
2006-04-10 07:44:15 51°15.691 2°53.578 -999 37 6.1 101810 68
2006-04-10 07:44:20 51°15.707 2°53.564 -999 40 6.1 101810 68
2006-04-10 07:44:24 51°15.718 2°53.552 -999 40 6.1 101820 68
2006-04-10 07:44:30 51°15.735 2°53.537 -999 38 6.1 101820 68
2006-04-10 07:44:34 51°15.746 2°53.525 -999 36 6.1 101820 68
2006-04-10 07:44:40 51°15.764 2°53.507 -999 38 6.1 101820 68
2006-04-10 07:44:44 51°15.775 2°53.495 -999 38 6 101810 67
2006-04-10 07:44:50 51°15.793 2°53.479 -999 35 6 101810 67
2006-04-10 07:44:54 51°15.804 2°53.468 -999 38 6 101810 68
2006-04-10 07:45:00 51°15.822 2°53.452 -999 35 6 101810 68
2006-04-10 07:45:04 51°15.834 2°53.441 -999 35 6 101810 69
2006-04-10 07:45:10 51°15.852 2°53.426 -999 32 6 101810 69
2006-04-10 07:45:14 51°15.863 2°53.416 -999 33 6.1 101820 70
2006-04-10 07:45:18 51°15.875 2°53.405 -999 29 6.1 101820 70
2006-04-10 07:45:25 51°15.897 2°53.385 -999 36 6.1 101810 71
2006-04-10 07:45:30 51°15.911 2°53.372 -999 34 6.1 101810 71
2006-04-10 07:45:34 51°15.922 2°53.361 -999 34 6.1 101810 71
2006-04-10 07:45:39 51°15.937 2°53.348 -999 33 6.1 101810 71
2006-04-10 07:45:44 51°15.952 2°53.334 -999 36 6.1 101820 71
2006-04-10 07:45:50 51°15.97 2°53.319 -999 37 6.1 101820 71
2006-04-10 07:45:54 51°15.982 2°53.308 -999 39 6.1 101810 70
2006-04-10 07:46:00 51°15.999 2°53.294 -999 35 6.1 101810 70
2006-04-10 07:46:04 51°16.011 2°53.283 -999 34 6 101830 70
2006-04-10 07:46:10 51°16.03 2°53.266 -999 38 6 101830 70
2006-04-10 07:46:14 51°16.043 2°53.256 -999 29 6 101820 69
2006-04-10 07:46:20 51°16.059 2°53.241 -999 32 6 101820 69
2006-04-10 07:46:24 51°16.072 2°53.231 -999 34 6 101820 69
2006-04-10 07:46:30 51°16.089 2°53.214 -999 31 6 101820 69
2006-04-10 07:46:34 51°16.101 2°53.204 -999 41 6 101820 69
2006-04-10 07:46:40 51°16.118 2°53.189 -999 40 6 101820 69
2006-04-10 07:46:44 51°16.13 2°53.179 -999 38 6 101830 69
2006-04-10 07:46:50 51°16.147 2°53.163 -999 30 6 101830 69
2006-04-10 07:46:54 51°16.159 2°53.152 -999 35 6 101820 70
2006-04-10 07:47:00 51°16.176 2°53.136 -999 33 6 101820 70
2006-04-10 07:47:05 51°16.19 2°53.123 -999 32 6 101810 70
2006-04-10 07:47:10 51°16.205 2°53.11 -999 30 6 101810 70
2006-04-10 07:47:14 51°16.216 2°53.1 -999 34 6 101820 71
2006-04-10 07:47:20 51°16.235 2°53.084 -999 32 6 101820 71
2006-04-10 07:47:25 51°16.249 2°53.071 -999 28 6 101820 70
2006-04-10 07:47:30 51°16.264 2°53.058 -999 34 6 101820 70
2006-04-10 07:47:34 51°16.275 2°53.049 -999 33 6 101820 70
2006-04-10 07:47:39 51°16.29 2°53.036 -999 33 6 101820 70
2006-04-10 07:47:44 51°16.304 2°53.025 -999 31 6 101820 71
2006-04-10 07:47:50 51°16.323 2°53.01 -999 30 6 101820 71
2006-04-10 07:47:54 51°16.334 2°53 -999 32 6 101820 71
2006-04-10 07:48:00 51°16.352 2°52.984 -999 26 6 101820 71
2006-04-10 07:48:04 51°16.363 2°52.974 -999 30 6 101830 70
2006-04-10 07:48:10 51°16.382 2°52.958 -999 28 6 101830 70
2006-04-10 07:48:14 51°16.393 2°52.949 -999 30 5.9 101820 70
2006-04-10 07:48:20 51°16.41 2°52.934 -999 35 5.9 101820 70
2006-04-10 07:48:25 51°16.425 2°52.922 -999 38 6 101830 70
2006-04-10 07:48:30 51°16.439 2°52.909 -999 33 6 101830 70
2006-04-10 07:48:34 51°16.451 2°52.899 -999 36 6 101820 70
2006-04-10 07:48:40 51°16.469 2°52.885 -999 31 6 101820 70
2006-04-10 07:48:44 51°16.481 2°52.875 -999 32 6 101820 71
2006-04-10 07:48:49 51°16.497 2°52.863 -999 34 6 101820 71
2006-04-10 07:48:54 51°16.511 2°52.851 -999 34 6 101830 71
2006-04-10 07:49:00 51°16.529 2°52.839 -999 32 6 101830 71
2006-04-10 07:49:05 51°16.545 2°52.827 -999 33 6 101830 72
2006-04-10 07:49:10 51°16.56 2°52.817 -999 33 6 101830 72
2006-04-10 07:49:14 51°16.573 2°52.808 -999 32 6 101840 71
2006-04-10 07:49:19 51°16.587 2°52.797 -999 27 6 101840 71
2006-04-10 07:49:25 51°16.605 2°52.785 -999 34 6 101820 70
2006-04-10 07:49:30 51°16.621 2°52.774 -999 31 6 101820 70
2006-04-10 07:49:34 51°16.634 2°52.766 -999 32 6 101820 70
2006-04-10 07:49:40 51°16.652 2°52.754 -999 34 6 101820 70
2006-04-10 07:49:45 51°16.667 2°52.745 -999 38 6 101830 70
2006-04-10 07:49:50 51°16.684 2°52.735 -999 36 6 101830 70
2006-04-10 07:49:55 51°16.699 2°52.727 -999 31 6 101830 70
2006-04-10 07:50:00 51°16.714 2°52.718 -999 30 6 101830 70
2006-04-10 07:50:05 51°16.73 2°52.709 -999 31 6 101820 71
2006-04-10 07:50:10 51°16.746 2°52.7 -999 34 6 101820 71
2006-04-10 07:50:14 51°16.758 2°52.692 -999 33 6 101820 72
2006-04-10 07:50:20 51°16.776 2°52.681 -999 35 6 101820 72
2006-04-10 07:50:24 51°16.788 2°52.674 -999 31 6 101810 71
2006-04-10 07:50:30 51°16.808 2°52.664 -999 32 6 101810 71
2006-04-10 07:50:34 51°16.821 2°52.659 -999 31 5.9 101820 70
2006-04-10 07:50:40 51°16.839 2°52.651 -999 32 5.9 101820 70
2006-04-10 07:50:44 51°16.851 2°52.647 -999 29 6 101840 70
2006-04-10 07:50:50 51°16.869 2°52.64 -999 30 6 101840 70
2006-04-10 07:50:55 51°16.885 2°52.635 -999 26 6 101820 69
2006-04-10 07:51:00 51°16.902 2°52.631 -999 28 6 101820 69
2006-04-10 07:51:05 51°16.917 2°52.626 -999 27 6 101830 70
2006-04-10 07:51:10 51°16.934 2°52.621 -999 32 6 101830 70
2006-04-10 07:51:14 51°16.947 2°52.618 -999 28 6 101830 71
2006-04-10 07:51:20 51°16.966 2°52.613 -999 34 6 101830 71
2006-04-10 07:51:24 51°16.979 2°52.609 -999 28 6.1 101820 71
2006-04-10 07:51:29 51°16.994 2°52.605 -999 23 6.1 101820 71
2006-04-10 07:51:34 51°17.012 2°52.601 -999 26 6 101820 71
2006-04-10 07:51:40 51°17.03 2°52.595 -999 -999 6 101820 71
2006-04-10 07:51:44 51°17.042 2°52.592 -999 29 6.1 101840 72
2006-04-10 07:51:50 51°17.062 2°52.586 -999 26 6.1 101840 72
2006-04-10 07:51:55 51°17.079 2°52.581 -999 28 6.1 101830 72
2006-04-10 07:52:00 51°17.094 2°52.578 -999 28 6.1 101830 72
2006-04-10 07:52:05 51°17.11 2°52.572 -999 31 6 101830 70
2006-04-10 07:52:10 51°17.126 2°52.569 -999 28 6 101830 70
2006-04-10 07:52:14 51°17.139 2°52.565 -999 25 6 101840 70
2006-04-10 07:52:19 51°17.154 2°52.561 -999 25 6 101840 70
2006-04-10 07:52:25 51°17.174 2°52.556 -999 26 6 101820 69
2006-04-10 07:52:30 51°17.19 2°52.553 -999 24 6 101820 69
2006-04-10 07:52:34 51°17.203 2°52.55 -999 22 6 101820 69
2006-04-10 07:52:40 51°17.222 2°52.546 -999 25 6 101820 69
2006-04-10 07:52:44 51°17.234 2°52.543 -999 25 6 101820 69
2006-04-10 07:52:50 51°17.254 2°52.539 -999 22 6 101820 69
2006-04-10 07:52:55 51°17.269 2°52.536 -999 20 6 101830 69
2006-04-10 07:53:00 51°17.285 2°52.533 -999 27 6 101830 69
2006-04-10 07:53:05 51°17.301 2°52.529 -999 26 6 101830 68
2006-04-10 07:53:10 51°17.317 2°52.525 -999 25 6 101830 68
2006-04-10 07:53:14 51°17.33 2°52.523 -999 25 6 101840 67
2006-04-10 07:53:20 51°17.349 2°52.518 -999 26 6 101840 67
2006-04-10 07:53:25 51°17.365 2°52.514 -999 26 5.9 101830 67
2006-04-10 07:53:30 51°17.381 2°52.51 -999 25 5.9 101830 67
2006-04-10 07:53:35 51°17.398 2°52.506 -999 27 6 101830 67
2006-04-10 07:53:40 51°17.413 2°52.503 -999 27 6 101830 67
2006-04-10 07:53:45 51°17.43 2°52.5 -999 26 6 101840 67
2006-04-10 07:53:50 51°17.446 2°52.496 -999 22 6 101840 67
2006-04-10 07:53:54 51°17.459 2°52.493 -999 22 5.9 101840 66
2006-04-10 07:53:59 51°17.475 2°52.489 -999 21 5.9 101840 66
2006-04-10 07:54:04 51°17.491 2°52.487 -999 17 6 101840 67
2006-04-10 07:54:10 51°17.509 2°52.484 -999 22 6 101840 67
2006-04-10 07:54:14 51°17.522 2°52.482 -999 23 6 101840 67
2006-04-10 07:54:20 51°17.542 2°52.479 -999 24 6 101840 67
2006-04-10 07:54:25 51°17.557 2°52.478 -999 22 6 101830 66
2006-04-10 07:54:30 51°17.574 2°52.475 -999 22 6 101830 66
2006-04-10 07:54:34 51°17.587 2°52.473 -999 24 6 101850 67
2006-04-10 07:54:40 51°17.606 2°52.471 -999 25 6 101850 67
2006-04-10 07:54:44 51°17.619 2°52.47 -999 20 6 101840 67
2006-04-10 07:54:50 51°17.639 2°52.47 -999 21 6 101840 67
2006-04-10 07:54:54 51°17.652 2°52.469 -999 22 6 101820 66
2006-04-10 07:55:00 51°17.671 2°52.468 -999 22 6 101820 66
2006-04-10 07:55:04 51°17.685 2°52.468 -999 19 6 101810 66
2006-04-10 07:55:10 51°17.704 2°52.467 -999 18 6 101810 66
2006-04-10 07:55:15 51°17.72 2°52.467 -999 27 6 101810 66
2006-04-10 07:55:20 51°17.737 2°52.467 -999 22 6 101810 66
2006-04-10 07:55:24 51°17.75 2°52.466 -999 23 6 101800 66
2006-04-10 07:55:29 51°17.766 2°52.467 -999 20 6 101800 66
2006-04-10 07:55:35 51°17.786 2°52.466 -999 24 6 101810 67
2006-04-10 07:55:40 51°17.801 2°52.466 -999 19 6 101810 67
2006-04-10 07:55:45 51°17.818 2°52.467 -999 22 6 101800 67
2006-04-10 07:55:50 51°17.833 2°52.467 -999 20 6 101800 67
2006-04-10 07:55:54 51°17.847 2°52.467 -999 20 6.1 101810 68
2006-04-10 07:56:00 51°17.867 2°52.468 -999 23 6.1 101810 68
2006-04-10 07:56:04 51°17.878 2°52.47 -999 25 6.1 101820 68
2006-04-10 07:56:09 51°17.895 2°52.47 -999 25 6.1 101820 68
2006-04-10 07:56:14 51°17.911 2°52.471 -999 24 6.1 101810 67
2006-04-10 07:56:20 51°17.93 2°52.473 -999 23 6.1 101810 67
2006-04-10 07:56:25 51°17.946 2°52.475 -999 21 6.1 101800 67
2006-04-10 07:56:30 51°17.963 2°52.479 -999 21 6.1 101800 67
2006-04-10 07:56:34 51°17.975 2°52.482 -999 23 6 101810 67
2006-04-10 07:56:40 51°17.994 2°52.489 -999 17 6 101810 67
2006-04-10 07:56:45 51°18.01 2°52.494 -999 13 6.1 101810 67
2006-04-10 07:56:50 51°18.025 2°52.503 -999 15 6.1 101810 67
2006-04-10 07:56:54 51°18.037 2°52.51 -999 11 6 101800 66
2006-04-10 07:57:00 51°18.055 2°52.523 -999 9 6 101800 66
2006-04-10 07:57:05 51°18.069 2°52.534 -999 9 6.1 101810 67
2006-04-10 07:57:10 51°18.083 2°52.547 -999 6 6.1 101810 67
2006-04-10 07:57:15 51°18.096 2°52.562 -999 4 6.1 101850 67
2006-04-10 07:57:20 51°18.11 2°52.577 -999 2 6.1 101850 67
2006-04-10 07:57:24 51°18.119 2°52.589 -999 2 6.1 101840 67
2006-04-10 07:57:30 51°18.135 2°52.61 -999 357 6.1 101840 67
2006-04-10 07:57:34 51°18.144 2°52.623 -999 357 6.1 101810 67
2006-04-10 07:57:40 51°18.16 2°52.642 -999 355 6.1 101810 67
2006-04-10 07:57:44 51°18.169 2°52.656 -999 359 6.1 101810 66
2006-04-10 07:57:50 51°18.184 2°52.676 -999 355 6.1 101810 66
2006-04-10 07:57:54 51°18.193 2°52.69 -999 354 6 101790 66
2006-04-10 07:58:00 51°18.206 2°52.712 -999 352 6 101790 66
2006-04-10 07:58:05 51°18.218 2°52.733 -999 353 6 101790 66
2006-04-10 07:58:10 51°18.229 2°52.75 -999 351 6 101810 66
2006-04-10 07:58:15 51°18.24 2°52.769 -999 348 6.1 101810 67
2006-04-10 07:58:20 51°18.248 2°52.79 -999 349 6.1 101810 67
2006-04-10 07:58:25 51°18.258 2°52.812 -999 351 6.1 101810 67
2006-04-10 07:58:30 51°18.269 2°52.832 -999 349 6.1 101810 67
2006-04-10 07:58:34 51°18.276 2°52.85 -999 347 6.1 101800 67
2006-04-10 07:58:40 51°18.286 2°52.876 -999 -999 6.1 101800 67
2006-04-10 07:58:45 51°18.293 2°52.9 -999 345 6.1 101810 67
2006-04-10 07:58:50 51°18.302 2°52.923 -999 345 6.1 101810 67
2006-04-10 07:58:54 51°18.306 2°52.943 -999 343 6.1 101800 67
2006-04-10 07:58:58 51°18.312 2°52.96 -999 340 6.1 101800 67
2006-04-10 07:59:04 51°18.319 2°52.99 -999 338 6.1 101800 67
2006-04-10 07:59:10 51°18.325 2°53.02 -999 343 6.1 101800 67
2006-04-10 07:59:14 51°18.33 2°53.04 -999 341 6.1 101800 68
2006-04-10 07:59:20 51°18.336 2°53.069 -999 343 6.1 101800 68
2006-04-10 07:59:25 51°18.342 2°53.094 -999 345 6.1 101810 68
2006-04-10 07:59:30 51°18.348 2°53.119 -999 341 6.1 101810 68
2006-04-10 07:59:34 51°18.353 2°53.138 -999 345 6.1 101810 69
2006-04-10 07:59:40 51°18.359 2°53.169 -999 336 6.1 101810 69
2006-04-10 07:59:44 51°18.364 2°53.187 -999 340 6.1 101810 69
2006-04-10 07:59:48 51°18.368 2°53.207 -999 337 6.1 101810 69
2006-04-10 07:59:54 51°18.375 2°53.237 -999 336 6.2 101800 69
2006-04-10 08:00:00 51°18.381 2°53.267 -999 339 6.2 101800 69
2006-04-10 08:00:05 51°18.387 2°53.291 -999 343 6.2 101800 69
2006-04-10 08:00:10 51°18.393 2°53.314 -999 344 6.1 101790 68
2006-04-10 08:00:14 51°18.397 2°53.334 -999 342 6.1 101790 68
2006-04-10 08:00:20 51°18.405 2°53.362 -999 344 6.1 101790 68
2006-04-10 08:00:24 51°18.411 2°53.382 -999 345 6.1 101800 68
2006-04-10 08:00:30 51°18.419 2°53.41 -999 340 6.1 101800 68
2006-04-10 08:00:34 51°18.424 2°53.429 -999 340 6.2 101800 68
2006-04-10 08:00:40 51°18.432 2°53.458 -999 342 6.2 101800 68
2006-04-10 08:00:45 51°18.44 2°53.482 -999 343 6.1 101800 67
2006-04-10 08:00:50 51°18.447 2°53.506 -999 343 6.1 101800 67
2006-04-10 08:00:54 51°18.453 2°53.525 -999 338 6.1 101800 67
2006-04-10 08:01:00 51°18.461 2°53.554 -999 341 6.1 101800 67
2006-04-10 08:01:04 51°18.467 2°53.573 -999 340 6.1 101800 66
2006-04-10 08:01:10 51°18.474 2°53.601 -999 337 6.1 101800 66
2006-04-10 08:01:15 51°18.481 2°53.626 -999 341 6.1 101800 66
2006-04-10 08:01:18 51°18.485 2°53.641 -999 338 6.1 101800 66
2006-04-10 08:01:24 51°18.493 2°53.669 -999 338 6.1 101800 66
2006-04-10 08:01:30 51°18.501 2°53.698 -999 349 6.1 101800 66
2006-04-10 08:01:34 51°18.507 2°53.717 -999 342 6.1 101810 67
2006-04-10 08:01:40 51°18.515 2°53.745 -999 340 6.1 101810 67
2006-04-10 08:01:44 51°18.52 2°53.765 -999 335 6.1 101800 66
2006-04-10 08:01:50 51°18.528 2°53.795 -999 346 6.1 101800 66
2006-04-10 08:01:54 51°18.533 2°53.813 -999 346 6.1 101800 67
2006-04-10 08:02:00 51°18.542 2°53.841 -999 339 6.1 101800 67
2006-04-10 08:02:04 51°18.547 2°53.86 -999 343 6.1 101800 66
2006-04-10 08:02:10 51°18.556 2°53.89 -999 342 6.1 101800 66
2006-04-10 08:02:14 51°18.561 2°53.909 -999 339 6.1 101800 66
2006-04-10 08:02:20 51°18.57 2°53.937 -999 340 6.1 101800 66
2006-04-10 08:02:24 51°18.575 2°53.957 -999 339 6.1 101800 65
2006-04-10 08:02:30 51°18.584 2°53.984 -999 339 6.1 101800 65
2006-04-10 08:02:34 51°18.589 2°54.004 -999 341 6.1 101810 65
2006-04-10 08:02:40 51°18.597 2°54.031 -999 342 6.1 101810 65
2006-04-10 08:02:45 51°18.604 2°54.055 -999 341 6.1 101790 64
2006-04-10 08:02:50 51°18.611 2°54.08 -999 338 6.1 101790 64
2006-04-10 08:02:54 51°18.617 2°54.099 -999 339 6.1 101800 65
2006-04-10 08:03:00 51°18.626 2°54.126 -999 343 6.1 101800 65
2006-04-10 08:03:05 51°18.632 2°54.15 -999 343 6.2 101800 66
2006-04-10 08:03:10 51°18.639 2°54.174 -999 340 6.2 101800 66
2006-04-10 08:03:14 51°18.644 2°54.193 -999 339 6.1 101800 66
2006-04-10 08:03:20 51°18.652 2°54.22 -999 347 6.1 101800 66
2006-04-10 08:03:25 51°18.659 2°54.244 -999 341 6.1 101800 67
2006-04-10 08:03:30 51°18.666 2°54.268 -999 338 6.1 101800 67
2006-04-10 08:03:35 51°18.672 2°54.292 -999 343 6.1 101800 67
2006-04-10 08:03:38 51°18.677 2°54.305 -999 341 6.2 101800 67
2006-04-10 08:03:44 51°18.686 2°54.334 -999 342 6.2 101800 67
2006-04-10 08:03:50 51°18.693 2°54.361 -999 336 6.2 101800 67
2006-04-10 08:03:54 51°18.698 2°54.381 -999 340 6.2 101800 67
2006-04-10 08:04:00 51°18.707 2°54.41 -999 341 6.2 101800 67
2006-04-10 08:04:05 51°18.714 2°54.434 -999 342 6.2 101800 67
2006-04-10 08:04:10 51°18.722 2°54.457 -999 344 6.2 101800 67
2006-04-10 08:04:15 51°18.729 2°54.48 -999 338 6.2 101820 68
2006-04-10 08:04:20 51°18.736 2°54.503 -999 340 6.2 101820 68
2006-04-10 08:04:24 51°18.742 2°54.523 -999 340 6.2 101810 69
2006-04-10 08:04:30 51°18.751 2°54.551 -999 341 6.2 101810 69
2006-04-10 08:04:34 51°18.757 2°54.569 -999 341 6.3 101800 68
2006-04-10 08:04:40 51°18.767 2°54.596 -999 340 6.3 101800 68
2006-04-10 08:04:44 51°18.772 2°54.615 -999 337 6.2 101800 68
2006-04-10 08:04:49 51°18.779 2°54.639 -999 336 6.2 101800 68
2006-04-10 08:04:54 51°18.785 2°54.662 -999 335 6.2 101800 68
2006-04-10 08:05:00 51°18.792 2°54.693 -999 335 6.2 101790 67
2006-04-10 08:05:04 51°18.798 2°54.711 -999 337 6.2 101800 68
2006-04-10 08:05:10 51°18.805 2°54.739 -999 342 6.2 101800 68
2006-04-10 08:05:14 51°18.81 2°54.758 -999 339 6.2 101800 68
2006-04-10 08:05:20 51°18.817 2°54.788 -999 339 6.2 101800 67
2006-04-10 08:05:24 51°18.822 2°54.808 -999 343 6.2 101790 67
2006-04-10 08:05:30 51°18.829 2°54.836 -999 344 6.2 101790 67
2006-04-10 08:05:34 51°18.834 2°54.855 -999 338 6.2 101790 68
2006-04-10 08:05:40 51°18.841 2°54.884 -999 340 6.2 101790 68
2006-04-10 08:05:45 51°18.848 2°54.908 -999 333 6.2 101800 69
2006-04-10 08:05:50 51°18.854 2°54.933 -999 335 6.2 101800 69
2006-04-10 08:05:54 51°18.859 2°54.952 -999 340 6.2 101800 69
2006-04-10 08:06:00 51°18.867 2°54.981 -999 343 6.2 101800 69
2006-04-10 08:06:05 51°18.874 2°55.004 -999 336 6.2 101800 68
2006-04-10 08:06:10 51°18.879 2°55.03 -999 339 6.2 101800 68
2006-04-10 08:06:15 51°18.886 2°55.054 -999 341 6.1 101790 68
2006-04-10 08:06:20 51°18.892 2°55.077 -999 343 6.1 101790 68
2006-04-10 08:06:24 51°18.898 2°55.095 -999 341 6.2 101800 68
2006-04-10 08:06:30 51°18.906 2°55.125 -999 343 6.2 101800 68
2006-04-10 08:06:34 51°18.911 2°55.145 -999 342 6.1 101800 68
2006-04-10 08:06:40 51°18.918 2°55.174 -999 345 6.1 101800 68
2006-04-10 08:06:44 51°18.923 2°55.193 -999 342 6.1 101800 68
2006-04-10 08:06:50 51°18.93 2°55.22 -999 341 6.1 101800 68
2006-04-10 08:06:54 51°18.935 2°55.241 -999 340 6.1 101790 68
2006-04-10 08:07:00 51°18.943 2°55.269 -999 337 6.1 101790 68
2006-04-10 08:07:05 51°18.949 2°55.293 -999 342 6.1 101790 68
2006-04-10 08:07:10 51°18.957 2°55.317 -999 341 6.1 101800 67
2006-04-10 08:07:14 51°18.961 2°55.334 -999 339 6.1 101810 68
2006-04-10 08:07:20 51°18.967 2°55.364 -999 336 6.1 101810 68
2006-04-10 08:07:25 51°18.974 2°55.388 -999 338 6.1 101790 67
2006-04-10 08:07:30 51°18.981 2°55.41 -999 338 6.1 101790 67
2006-04-10 08:07:34 51°18.986 2°55.43 -999 338 6.1 101790 67
2006-04-10 08:07:40 51°18.994 2°55.459 -999 340 6.1 101790 67
2006-04-10 08:07:45 51°19 2°55.481 -999 337 6.1 101800 67
2006-04-10 08:07:50 51°19.006 2°55.506 -999 335 6.1 101800 67
2006-04-10 08:07:54 51°19.012 2°55.525 -999 334 6.1 101800 67
2006-04-10 08:08:00 51°19.019 2°55.553 -999 335 6.1 101800 67
2006-04-10 08:08:05 51°19.024 2°55.577 -999 331 6.1 101800 68
2006-04-10 08:08:10 51°19.031 2°55.602 -999 332 6.1 101800 68
2006-04-10 08:08:15 51°19.038 2°55.625 -999 333 6.1 101800 68
2006-04-10 08:08:18 51°19.041 2°55.639 -999 333 6.1 101790 67
2006-04-10 08:08:24 51°19.049 2°55.667 -999 334 6.1 101790 67
2006-04-10 08:08:30 51°19.057 2°55.696 -999 335 6.1 101790 67
2006-04-10 08:08:34 51°19.062 2°55.715 -999 331 6.1 101800 68
2006-04-10 08:08:40 51°19.069 2°55.743 -999 333 6.1 101800 68
2006-04-10 08:08:44 51°19.075 2°55.761 -999 334 6.1 101800 68
2006-04-10 08:08:50 51°19.083 2°55.789 -999 337 6.1 101800 68
2006-04-10 08:08:55 51°19.09 2°55.813 -999 341 6.1 101800 68
2006-04-10 08:09:00 51°19.096 2°55.837 -999 338 6.1 101800 68
2006-04-10 08:09:04 51°19.101 2°55.856 -999 342 6.1 101800 68
2006-04-10 08:09:08 51°19.107 2°55.874 -999 344 6.1 101800 68
2006-04-10 08:09:15 51°19.115 2°55.908 -999 346 6.1 101790 68
2006-04-10 08:09:20 51°19.122 2°55.932 -999 341 6.1 101790 68
2006-04-10 08:09:24 51°19.128 2°55.949 -999 339 6.1 101810 68
2006-04-10 08:09:30 51°19.136 2°55.977 -999 342 6.1 101810 68
2006-04-10 08:09:34 51°19.141 2°55.996 -999 342 6.1 101810 67
2006-04-10 08:09:40 51°19.149 2°56.023 -999 341 6.1 101810 67
2006-04-10 08:09:45 51°19.155 2°56.048 -999 341 6.1 101800 66
2006-04-10 08:09:50 51°19.163 2°56.071 -999 339 6.1 101800 66
2006-04-10 08:09:54 51°19.167 2°56.089 -999 343 6.1 101800 66
2006-04-10 08:10:00 51°19.175 2°56.117 -999 337 6.1 101800 66
2006-04-10 08:10:04 51°19.179 2°56.138 -999 342 6.1 101800 66
2006-04-10 08:10:08 51°19.185 2°56.156 -999 346 6.1 101800 66
2006-04-10 08:10:14 51°19.192 2°56.184 -999 339 6.3 101810 65
2006-04-10 08:10:20 51°19.2 2°56.211 -999 343 6.3 101810 65
2006-04-10 08:10:25 51°19.206 2°56.235 -999 342 6.1 101800 65
2006-04-10 08:10:30 51°19.213 2°56.259 -999 335 6.1 101800 65
2006-04-10 08:10:34 51°19.217 2°56.278 -999 341 6.1 101800 66
2006-04-10 08:10:40 51°19.225 2°56.305 -999 340 6.1 101800 66
2006-04-10 08:10:44 51°19.23 2°56.325 -999 343 6.1 101810 66
2006-04-10 08:10:50 51°19.238 2°56.354 -999 333 6.1 101810 66
2006-04-10 08:10:54 51°19.243 2°56.374 -999 338 6.1 101810 66
2006-04-10 08:11:00 51°19.251 2°56.4 -999 344 6.1 101810 66
2006-04-10 08:11:04 51°19.255 2°56.42 -999 341 6.1 101820 66
2006-04-10 08:11:10 51°19.263 2°56.449 -999 340 6.1 101820 66
2006-04-10 08:11:14 51°19.269 2°56.467 -999 340 6.1 101800 66
2006-04-10 08:11:20 51°19.277 2°56.495 -999 339 6.1 101800 66
2006-04-10 08:11:24 51°19.281 2°56.514 -999 345 6.1 101810 66
2006-04-10 08:11:30 51°19.289 2°56.543 -999 338 6.1 101810 66
2006-04-10 08:11:35 51°19.295 2°56.565 -999 340 6.1 101810 66
2006-04-10 08:11:40 51°19.302 2°56.59 -999 340 6.1 101810 66
2006-04-10 08:11:44 51°19.306 2°56.61 -999 338 6.1 101810 65
2006-04-10 08:11:50 51°19.314 2°56.636 -999 341 6.1 101810 65
2006-04-10 08:11:54 51°19.319 2°56.655 -999 339 6.1 101810 66
2006-04-10 08:12:00 51°19.327 2°56.684 -999 345 6.1 101810 66
2006-04-10 08:12:05 51°19.333 2°56.707 -999 340 6.2 101810 67
2006-04-10 08:12:10 51°19.34 2°56.731 -999 341 6.2 101810 67
2006-04-10 08:12:14 51°19.345 2°56.75 -999 342 6.2 101810 67
2006-04-10 08:12:20 51°19.352 2°56.78 -999 336 6.2 101810 67
2006-04-10 08:12:25 51°19.358 2°56.803 -999 337 6.2 101810 67
2006-04-10 08:12:30 51°19.364 2°56.826 -999 341 6.2 101810 67
2006-04-10 08:12:34 51°19.37 2°56.845 -999 333 6.2 101810 67
2006-04-10 08:12:39 51°19.376 2°56.869 -999 342 6.2 101810 67
2006-04-10 08:12:44 51°19.382 2°56.892 -999 342 6.1 101800 67
2006-04-10 08:12:50 51°19.39 2°56.922 -999 340 6.1 101800 67
2006-04-10 08:12:54 51°19.395 2°56.94 -999 339 6.2 101830 67
2006-04-10 08:13:00 51°19.403 2°56.969 -999 332 6.2 101830 67
2006-04-10 08:13:05 51°19.409 2°56.994 -999 341 6.2 101830 67
2006-04-10 08:13:10 51°19.416 2°57.017 -999 339 6.2 101820 68
2006-04-10 08:13:14 51°19.42 2°57.036 -999 341 6.2 101810 67
2006-04-10 08:13:20 51°19.428 2°57.065 -999 341 6.2 101810 67
2006-04-10 08:13:24 51°19.434 2°57.084 -999 337 6.2 101810 68
2006-04-10 08:13:30 51°19.44 2°57.113 -999 337 6.2 101810 68
2006-04-10 08:13:35 51°19.448 2°57.137 -999 335 6.2 101820 67
2006-04-10 08:13:40 51°19.454 2°57.16 -999 334 6.2 101820 67
2006-04-10 08:13:44 51°19.459 2°57.18 -999 339 6.1 101810 67
2006-04-10 08:13:50 51°19.468 2°57.208 -999 334 6.1 101810 67
2006-04-10 08:13:54 51°19.472 2°57.228 -999 334 6.1 101830 67
2006-04-10 08:14:00 51°19.48 2°57.256 -999 337 6.1 101830 67
2006-04-10 08:14:05 51°19.485 2°57.279 -999 339 6.1 101810 67
2006-04-10 08:14:10 51°19.492 2°57.303 -999 339 6.1 101810 67
2006-04-10 08:14:14 51°19.497 2°57.322 -999 341 6.1 101810 67
2006-04-10 08:14:20 51°19.506 2°57.351 -999 338 6.1 101810 67
2006-04-10 08:14:24 51°19.51 2°57.37 -999 341 6.1 101810 67
2006-04-10 08:14:30 51°19.519 2°57.398 -999 343 6.1 101810 67
2006-04-10 08:14:35 51°19.526 2°57.422 -999 337 6.1 101810 67
2006-04-10 08:14:40 51°19.533 2°57.446 -999 344 6.1 101820 68
2006-04-10 08:14:45 51°19.539 2°57.47 -999 342 6.1 101820 68
2006-04-10 08:14:50 51°19.546 2°57.494 -999 341 6.1 101820 68
2006-04-10 08:14:54 51°19.55 2°57.513 -999 341 6.2 101820 69
2006-04-10 08:15:00 51°19.559 2°57.542 -999 339 6.2 101820 69
2006-04-10 08:15:05 51°19.565 2°57.566 -999 336 6.2 101830 69
2006-04-10 08:15:10 51°19.571 2°57.591 -999 345 6.2 101830 69
2006-04-10 08:15:15 51°19.578 2°57.615 -999 344 6.2 101820 69
2006-04-10 08:15:20 51°19.584 2°57.639 -999 344 6.2 101820 69
2006-04-10 08:15:25 51°19.591 2°57.662 -999 343 6.2 101820 69
2006-04-10 08:15:30 51°19.597 2°57.688 -999 340 6.2 101820 69
2006-04-10 08:15:34 51°19.602 2°57.706 -999 338 6.2 101820 70
2006-04-10 08:15:40 51°19.609 2°57.735 -999 342 6.2 101820 70
2006-04-10 08:15:44 51°19.615 2°57.753 -999 344 6.2 101830 70
2006-04-10 08:15:48 51°19.62 2°57.773 -999 336 6.2 101830 70
2006-04-10 08:15:54 51°19.627 2°57.801 -999 338 6.2 101810 69
2006-04-10 08:16:00 51°19.635 2°57.83 -999 339 6.2 101810 69
2006-04-10 08:16:05 51°19.641 2°57.854 -999 339 6.2 101810 69
2006-04-10 08:16:10 51°19.648 2°57.877 -999 340 6.2 101820 68
2006-04-10 08:16:14 51°19.652 2°57.898 -999 339 6.2 101820 68
2006-04-10 08:16:20 51°19.66 2°57.927 -999 336 6.2 101820 68
2006-04-10 08:16:25 51°19.666 2°57.951 -999 337 6.2 101820 69
2006-04-10 08:16:30 51°19.672 2°57.974 -999 344 6.2 101820 69
2006-04-10 08:16:35 51°19.679 2°57.999 -999 345 6.2 101820 69
2006-04-10 08:16:40 51°19.686 2°58.02 -999 346 6.2 101820 69
2006-04-10 08:16:45 51°19.692 2°58.046 -999 346 6.2 101810 69
2006-04-10 08:16:50 51°19.698 2°58.069 -999 345 6.2 101810 69
2006-04-10 08:16:54 51°19.704 2°58.089 -999 345 6.2 101830 70
2006-04-10 08:17:00 51°19.712 2°58.116 -999 343 6.2 101830 70
2006-04-10 08:17:05 51°19.718 2°58.141 -999 337 6.2 101820 69
2006-04-10 08:17:10 51°19.724 2°58.164 -999 342 6.2 101820 69
2006-04-10 08:17:14 51°19.729 2°58.182 -999 338 6.2 101830 69
2006-04-10 08:17:20 51°19.736 2°58.212 -999 338 6.2 101830 69
2006-04-10 08:17:24 51°19.741 2°58.232 -999 334 6.2 101840 69
2006-04-10 08:17:30 51°19.749 2°58.258 -999 339 6.2 101840 69
2006-04-10 08:17:35 51°19.755 2°58.283 -999 335 6.2 101810 69
2006-04-10 08:17:38 51°19.759 2°58.298 -999 339 6.2 101810 69
2006-04-10 08:17:45 51°19.768 2°58.33 -999 340 6.2 101810 69
2006-04-10 08:17:50 51°19.774 2°58.355 -999 338 6.2 101810 69
2006-04-10 08:17:54 51°19.779 2°58.374 -999 341 6.3 101820 70
2006-04-10 08:18:00 51°19.787 2°58.403 -999 341 6.3 101820 70
2006-04-10 08:18:05 51°19.794 2°58.426 -999 339 6.3 101820 70
2006-04-10 08:18:10 51°19.8 2°58.449 -999 339 6.3 101830 70
2006-04-10 08:18:15 51°19.807 2°58.473 -999 341 6.3 101820 70
2006-04-10 08:18:20 51°19.813 2°58.497 -999 342 6.3 101820 70
2006-04-10 08:18:25 51°19.82 2°58.521 -999 338 6.3 101830 70
2006-04-10 08:18:30 51°19.825 2°58.545 -999 340 6.3 101830 70
2006-04-10 08:18:35 51°19.833 2°58.569 -999 340 6.3 101830 69
2006-04-10 08:18:40 51°19.838 2°58.593 -999 338 6.3 101830 69
2006-04-10 08:18:44 51°19.843 2°58.613 -999 341 6.3 101820 69
2006-04-10 08:18:50 51°19.85 2°58.641 -999 339 6.3 101820 69
2006-04-10 08:18:54 51°19.855 2°58.66 -999 339 6.3 101830 69
2006-04-10 08:19:00 51°19.863 2°58.688 -999 338 6.3 101830 69
2006-04-10 08:19:05 51°19.869 2°58.713 -999 333 6.2 101820 68
2006-04-10 08:19:10 51°19.874 2°58.738 -999 335 6.2 101820 68
2006-04-10 08:19:14 51°19.88 2°58.757 -999 331 6.2 101820 67
2006-04-10 08:19:20 51°19.887 2°58.785 -999 336 6.2 101820 67
2006-04-10 08:19:25 51°19.894 2°58.809 -999 332 6.2 101820 66
2006-04-10 08:19:30 51°19.9 2°58.833 -999 339 6.2 101820 66
2006-04-10 08:19:34 51°19.905 2°58.853 -999 334 6.2 101810 65
2006-04-10 08:19:40 51°19.912 2°58.883 -999 338 6.2 101810 65
2006-04-10 08:19:45 51°19.919 2°58.905 -999 333 6.2 101810 65
2006-04-10 08:19:50 51°19.925 2°58.929 -999 335 6.2 101810 65
2006-04-10 08:19:55 51°19.932 2°58.953 -999 336 6.2 101820 65
2006-04-10 08:20:00 51°19.937 2°58.978 -999 338 6.2 101820 65
2006-04-10 08:20:04 51°19.944 2°58.996 -999 340 6.2 101820 65
2006-04-10 08:20:10 51°19.95 2°59.026 -999 351 6.2 101820 65
2006-04-10 08:20:14 51°19.957 2°59.044 -999 346 6.2 101830 65
2006-04-10 08:20:20 51°19.963 2°59.073 -999 344 6.2 101830 65
2006-04-10 08:20:24 51°19.968 2°59.093 -999 344 6.2 101820 66
2006-04-10 08:20:30 51°19.977 2°59.121 -999 351 6.2 101820 66
2006-04-10 08:20:35 51°19.983 2°59.146 -999 343 6.2 101820 66
2006-04-10 08:20:40 51°19.989 2°59.17 -999 344 6.2 101820 66
2006-04-10 08:20:44 51°19.994 2°59.19 -999 343 6.2 101840 66
2006-04-10 08:20:50 51°20.001 2°59.218 -999 347 6.2 101840 66
2006-04-10 08:20:55 51°20.008 2°59.243 -999 342 6.2 101840 66
2006-04-10 08:21:00 51°20.014 2°59.266 -999 343 6.2 101840 66
2006-04-10 08:21:04 51°20.019 2°59.286 -999 339 6.2 101830 65
2006-04-10 08:21:10 51°20.025 2°59.315 -999 343 6.2 101830 65
2006-04-10 08:21:15 51°20.033 2°59.339 -999 338 6.2 101830 65
2006-04-10 08:21:20 51°20.039 2°59.363 -999 342 6.2 101840 65
2006-04-10 08:21:24 51°20.044 2°59.383 -999 339 6.2 101830 65
2006-04-10 08:21:30 51°20.052 2°59.412 -999 342 6.2 101830 65
2006-04-10 08:21:34 51°20.057 2°59.431 -999 342 6.2 101830 65
2006-04-10 08:21:40 51°20.065 2°59.46 -999 339 6.2 101830 65
2006-04-10 08:21:45 51°20.072 2°59.485 -999 337 6.2 101830 65
2006-04-10 08:21:50 51°20.078 2°59.508 -999 340 6.2 101830 65
2006-04-10 08:21:55 51°20.084 2°59.533 -999 338 6.2 101840 66
2006-04-10 08:22:00 51°20.091 2°59.557 -999 345 6.2 101840 66
2006-04-10 08:22:05 51°20.097 2°59.582 -999 342 6.2 101830 66
2006-04-10 08:22:10 51°20.103 2°59.606 -999 343 6.2 101830 66
2006-04-10 08:22:14 51°20.108 2°59.626 -999 340 6.2 101830 67
2006-04-10 08:22:18 51°20.113 2°59.646 -999 345 6.2 101830 67
2006-04-10 08:22:24 51°20.122 2°59.674 -999 346 6.2 101830 67
2006-04-10 08:22:30 51°20.13 2°59.704 -999 342 6.2 101830 67
2006-04-10 08:22:34 51°20.134 2°59.724 -999 342 6.2 101830 66
2006-04-10 08:22:40 51°20.143 2°59.752 -999 343 6.2 101830 66
2006-04-10 08:22:44 51°20.148 2°59.772 -999 343 6.2 101820 66
2006-04-10 08:22:50 51°20.156 2°59.802 -999 339 6.2 101820 66
2006-04-10 08:22:55 51°20.163 2°59.827 -999 340 6.2 101820 66
2006-04-10 08:23:00 51°20.169 2°59.85 -999 340 6.2 101820 66
2006-04-10 08:23:05 51°20.175 2°59.876 -999 343 6.2 101840 66
2006-04-10 08:23:10 51°20.182 2°59.9 -999 335 6.2 101840 66
2006-04-10 08:23:15 51°20.188 2°59.926 -999 340 6.2 101820 65
2006-04-10 08:23:20 51°20.194 2°59.949 -999 336 6.2 101820 65
2006-04-10 08:23:24 51°20.199 2°59.969 -999 334 6.2 101830 66
2006-04-10 08:23:30 51°20.206 2°59.999 -999 335 6.2 101830 66
2006-04-10 08:23:34 51°20.211 3°0.018 -999 334 6.2 101820 66
2006-04-10 08:23:40 51°20.218 3°0.049 -999 334 6.2 101820 66
2006-04-10 08:23:44 51°20.223 3°0.069 -999 335 6.2 101830 66
2006-04-10 08:23:50 51°20.23 3°0.098 -999 336 6.2 101830 66
2006-04-10 08:23:54 51°20.236 3°0.117 -999 341 6.2 101820 67
2006-04-10 08:24:00 51°20.243 3°0.147 -999 340 6.2 101820 67
2006-04-10 08:24:05 51°20.25 3°0.172 -999 338 6.2 101820 66
2006-04-10 08:24:10 51°20.256 3°0.196 -999 340 6.2 101820 66
2006-04-10 08:24:14 51°20.261 3°0.215 -999 337 6.2 101830 67
2006-04-10 08:24:20 51°20.268 3°0.246 -999 338 6.2 101830 67
2006-04-10 08:24:25 51°20.275 3°0.27 -999 337 6.2 101840 67
2006-04-10 08:24:30 51°20.281 3°0.295 -999 337 6.2 101840 67
2006-04-10 08:24:34 51°20.286 3°0.315 -999 339 6.2 101830 67
2006-04-10 08:24:40 51°20.294 3°0.345 -999 342 6.2 101830 67
2006-04-10 08:24:44 51°20.3 3°0.363 -999 334 6.2 101830 67
2006-04-10 08:24:49 51°20.306 3°0.389 -999 337 6.2 101830 67
2006-04-10 08:24:54 51°20.313 3°0.414 -999 339 6.2 101840 68
2006-04-10 08:25:00 51°20.32 3°0.443 -999 340 6.2 101840 68
2006-04-10 08:25:04 51°20.325 3°0.463 -999 348 6.2 101840 67
2006-04-10 08:25:10 51°20.333 3°0.494 -999 340 6.2 101840 67
2006-04-10 08:25:15 51°20.34 3°0.517 -999 344 6.2 101830 67
2006-04-10 08:25:20 51°20.346 3°0.542 -999 342 6.2 101830 67
2006-04-10 08:25:25 51°20.352 3°0.569 -999 339 6.2 101840 68
2006-04-10 08:25:30 51°20.359 3°0.593 -999 335 6.2 101840 68
2006-04-10 08:25:34 51°20.364 3°0.614 -999 344 6.2 101830 68
2006-04-10 08:25:40 51°20.372 3°0.642 -999 337 6.2 101830 68
2006-04-10 08:25:45 51°20.377 3°0.669 -999 352 6.2 101840 68
2006-04-10 08:25:50 51°20.385 3°0.692 -999 343 6.2 101840 68
2006-04-10 08:25:54 51°20.389 3°0.712 -999 346 6.3 101830 69
2006-04-10 08:26:00 51°20.397 3°0.743 -999 343 6.3 101830 69
2006-04-10 08:26:05 51°20.404 3°0.768 -999 343 6.3 101850 69
2006-04-10 08:26:10 51°20.41 3°0.791 -999 340 6.3 101850 69
2006-04-10 08:26:14 51°20.414 3°0.812 -999 342 6.3 101850 69
2006-04-10 08:26:20 51°20.423 3°0.842 -999 342 6.3 101850 69
2006-04-10 08:26:25 51°20.429 3°0.866 -999 341 6.3 101850 69
2006-04-10 08:26:30 51°20.436 3°0.89 -999 341 6.3 101850 69
2006-04-10 08:26:34 51°20.441 3°0.911 -999 337 6.3 101870 69
2006-04-10 08:26:40 51°20.449 3°0.94 -999 341 6.3 101870 69
2006-04-10 08:26:44 51°20.454 3°0.96 -999 346 6.3 101840 69
2006-04-10 08:26:50 51°20.462 3°0.991 -999 340 6.3 101840 69
2006-04-10 08:26:54 51°20.468 3°1.011 -999 347 6.3 101850 69
2006-04-10 08:27:00 51°20.475 3°1.04 -999 346 6.3 101850 69
2006-04-10 08:27:04 51°20.481 3°1.059 -999 343 6.3 101840 69
2006-04-10 08:27:10 51°20.488 3°1.09 -999 338 6.3 101840 69
2006-04-10 08:27:15 51°20.496 3°1.116 -999 345 6.3 101830 69
2006-04-10 08:27:18 51°20.499 3°1.131 -999 339 6.3 101830 69
2006-04-10 08:27:24 51°20.507 3°1.16 -999 341 6.3 101860 69
2006-04-10 08:27:30 51°20.514 3°1.191 -999 337 6.3 101860 69
2006-04-10 08:27:34 51°20.521 3°1.211 -999 340 6.3 101840 68
2006-04-10 08:27:40 51°20.528 3°1.239 -999 338 6.3 101840 68
2006-04-10 08:27:44 51°20.533 3°1.259 -999 340 6.3 101840 68
2006-04-10 08:27:50 51°20.541 3°1.291 -999 340 6.3 101840 68
2006-04-10 08:27:54 51°20.547 3°1.31 -999 337 6.3 101840 68
2006-04-10 08:28:00 51°20.554 3°1.339 -999 339 6.3 101840 68
2006-04-10 08:28:05 51°20.561 3°1.365 -999 340 6.3 101850 68
2006-04-10 08:28:10 51°20.567 3°1.389 -999 338 6.3 101850 68
2006-04-10 08:28:14 51°20.573 3°1.408 -999 336 6.3 101830 68
2006-04-10 08:28:20 51°20.58 3°1.439 -999 336 6.3 101830 68
2006-04-10 08:28:25 51°20.586 3°1.465 -999 345 6.3 101840 67
2006-04-10 08:28:30 51°20.593 3°1.49 -999 337 6.3 101840 67
2006-04-10 08:28:34 51°20.598 3°1.511 -999 341 6.3 101830 67
2006-04-10 08:28:40 51°20.606 3°1.54 -999 338 6.3 101830 67
2006-04-10 08:28:45 51°20.613 3°1.565 -999 339 6.3 101840 68
2006-04-10 08:28:50 51°20.62 3°1.59 -999 338 6.3 101840 68
2006-04-10 08:28:55 51°20.627 3°1.615 -999 341 6.3 101840 68
2006-04-10 08:29:00 51°20.633 3°1.639 -999 343 6.3 101840 68
2006-04-10 08:29:04 51°20.639 3°1.66 -999 340 6.3 101840 67
2006-04-10 08:29:10 51°20.647 3°1.689 -999 341 6.3 101840 67
2006-04-10 08:29:15 51°20.653 3°1.715 -999 344 6.3 101840 68
2006-04-10 08:29:18 51°20.657 3°1.73 -999 347 6.3 101840 68
2006-04-10 08:29:24 51°20.666 3°1.76 -999 343 6.4 101850 69
2006-04-10 08:29:30 51°20.672 3°1.79 -999 348 6.4 101850 69
2006-04-10 08:29:34 51°20.678 3°1.809 -999 345 6.4 101850 69
2006-04-10 08:29:40 51°20.685 3°1.84 -999 352 6.4 101850 69
2006-04-10 08:29:45 51°20.692 3°1.865 -999 344 6.4 101850 69
2006-04-10 08:29:50 51°20.7 3°1.89 -999 350 6.4 101850 69
2006-04-10 08:29:55 51°20.706 3°1.914 -999 345 6.3 101850 68
2006-04-10 08:30:00 51°20.712 3°1.941 -999 350 6.3 101850 68
2006-04-10 08:30:04 51°20.717 3°1.959 -999 344 6.3 101850 69
2006-04-10 08:30:10 51°20.725 3°1.99 -999 349 6.3 101850 69
2006-04-10 08:30:14 51°20.73 3°2.009 -999 349 6.4 101850 69
2006-04-10 08:30:20 51°20.737 3°2.04 -999 349 6.4 101850 69
2006-04-10 08:30:24 51°20.743 3°2.061 -999 349 6.4 101840 69
2006-04-10 08:30:30 51°20.751 3°2.089 -999 350 6.4 101840 69
2006-04-10 08:30:34 51°20.757 3°2.109 -999 346 6.4 101840 69
2006-04-10 08:30:40 51°20.765 3°2.14 -999 344 6.4 101840 69
2006-04-10 08:30:44 51°20.77 3°2.159 -999 348 6.4 101850 69
2006-04-10 08:30:50 51°20.778 3°2.189 -999 350 6.4 101850 69
2006-04-10 08:30:55 51°20.784 3°2.215 -999 350 6.4 101850 69
2006-04-10 08:31:00 51°20.791 3°2.239 -999 345 6.4 101850 69
2006-04-10 08:31:05 51°20.797 3°2.264 -999 347 6.4 101840 68
2006-04-10 08:31:10 51°20.805 3°2.289 -999 347 6.4 101840 68
2006-04-10 08:31:15 51°20.81 3°2.313 -999 346 6.4 101860 68
2006-04-10 08:31:18 51°20.815 3°2.328 -999 348 6.4 101860 68
2006-04-10 08:31:24 51°20.822 3°2.358 -999 346 6.4 101830 69
2006-04-10 08:31:30 51°20.83 3°2.388 -999 347 6.4 101830 69
2006-04-10 08:31:34 51°20.835 3°2.408 -999 347 6.4 101850 69
2006-04-10 08:31:40 51°20.843 3°2.438 -999 348 6.4 101850 69
2006-04-10 08:31:44 51°20.848 3°2.458 -999 353 6.4 101850 68
2006-04-10 08:31:49 51°20.856 3°2.483 -999 346 6.4 101850 68
2006-04-10 08:31:54 51°20.863 3°2.509 -999 346 6.4 101850 67
2006-04-10 08:32:00 51°20.871 3°2.538 -999 349 6.4 101850 67
2006-04-10 08:32:04 51°20.876 3°2.558 -999 346 6.4 101860 68
2006-04-10 08:32:08 51°20.882 3°2.579 -999 352 6.4 101860 68
2006-04-10 08:32:14 51°20.889 3°2.609 -999 350 6.4 101850 68
2006-04-10 08:32:20 51°20.898 3°2.638 -999 348 6.4 101850 68
2006-04-10 08:32:25 51°20.904 3°2.665 -999 347 6.4 101850 68
2006-04-10 08:32:30 51°20.91 3°2.689 -999 346 6.4 101850 68
2006-04-10 08:32:34 51°20.916 3°2.709 -999 344 6.4 101850 68
2006-04-10 08:32:40 51°20.924 3°2.739 -999 349 6.4 101850 68
2006-04-10 08:32:44 51°20.929 3°2.758 -999 342 6.4 101840 68
2006-04-10 08:32:50 51°20.938 3°2.789 -999 341 6.4 101840 68
2006-04-10 08:32:54 51°20.943 3°2.81 -999 344 6.4 101860 68
2006-04-10 08:33:00 51°20.95 3°2.839 -999 341 6.4 101860 68
2006-04-10 08:33:05 51°20.957 3°2.865 -999 344 6.4 101860 68
2006-04-10 08:33:10 51°20.963 3°2.89 -999 341 6.4 101860 68
2006-04-10 08:33:14 51°20.968 3°2.911 -999 345 6.4 101840 68
2006-04-10 08:33:20 51°20.977 3°2.94 -999 346 6.4 101840 68
2006-04-10 08:33:24 51°20.982 3°2.961 -999 345 6.4 101860 67
2006-04-10 08:33:30 51°20.991 3°2.991 -999 343 6.4 101860 67
2006-04-10 08:33:34 51°20.996 3°3.01 -999 344 6.4 101850 67
2006-04-10 08:33:40 51°21.004 3°3.04 -999 347 6.4 101850 67
2006-04-10 08:33:44 51°21.01 3°3.06 -999 349 6.4 101850 67
2006-04-10 08:33:50 51°21.018 3°3.09 -999 347 6.4 101850 67
2006-04-10 08:33:54 51°21.023 3°3.111 -999 346 6.4 101840 67
2006-04-10 08:34:00 51°21.032 3°3.14 -999 344 6.4 101840 67
2006-04-10 08:34:04 51°21.037 3°3.161 -999 346 6.4 101870 68
2006-04-10 08:34:10 51°21.045 3°3.191 -999 347 6.4 101870 68
2006-04-10 08:34:15 51°21.052 3°3.216 -999 353 6.4 101860 68
2006-04-10 08:34:20 51°21.059 3°3.241 -999 347 6.4 101860 68
2006-04-10 08:34:24 51°21.064 3°3.262 -999 349 6.4 101840 68
2006-04-10 08:34:30 51°21.072 3°3.292 -999 350 6.4 101840 68
2006-04-10 08:34:35 51°21.078 3°3.318 -999 340 6.3 101850 68
2006-04-10 08:34:40 51°21.085 3°3.342 -999 344 6.3 101850 68
2006-04-10 08:34:44 51°21.09 3°3.362 -999 340 6.4 101860 68
2006-04-10 08:34:50 51°21.099 3°3.394 -999 338 6.4 101860 68
2006-04-10 08:34:55 51°21.105 3°3.419 -999 343 6.4 101860 68
2006-04-10 08:35:00 51°21.113 3°3.444 -999 339 6.4 101860 68
2006-04-10 08:35:05 51°21.119 3°3.469 -999 343 6.4 101840 68
2006-04-10 08:35:10 51°21.126 3°3.495 -999 344 6.4 101840 68
2006-04-10 08:35:15 51°21.133 3°3.52 -999 343 6.4 101840 68
2006-04-10 08:35:18 51°21.138 3°3.535 -999 345 6.4 101850 68
2006-04-10 08:35:24 51°21.146 3°3.566 -999 340 6.4 101850 68
2006-04-10 08:35:30 51°21.154 3°3.596 -999 344 6.4 101850 68
2006-04-10 08:35:34 51°21.159 3°3.616 -999 340 6.4 101860 68
2006-04-10 08:35:40 51°21.168 3°3.647 -999 339 6.4 101860 68
2006-04-10 08:35:45 51°21.174 3°3.672 -999 339 6.4 101840 67
2006-04-10 08:35:50 51°21.181 3°3.698 -999 342 6.4 101840 67
2006-04-10 08:35:54 51°21.188 3°3.718 -999 339 6.4 101840 66
2006-04-10 08:36:00 51°21.195 3°3.749 -999 343 6.4 101840 66
2006-04-10 08:36:04 51°21.202 3°3.768 -999 343 6.4 101840 67
2006-04-10 08:36:10 51°21.211 3°3.798 -999 339 6.4 101840 67
2006-04-10 08:36:15 51°21.218 3°3.824 -999 346 6.4 101850 68
2006-04-10 08:36:20 51°21.225 3°3.849 -999 342 6.4 101850 68
2006-04-10 08:36:25 51°21.232 3°3.875 -999 341 6.4 101840 68
2006-04-10 08:36:30 51°21.239 3°3.9 -999 343 6.4 101840 68
2006-04-10 08:36:34 51°21.244 3°3.92 -999 338 6.5 101830 68
2006-04-10 08:36:40 51°21.252 3°3.952 -999 340 6.5 101830 68
2006-04-10 08:36:44 51°21.258 3°3.972 -999 341 6.5 101860 68
2006-04-10 08:36:49 51°21.264 3°3.998 -999 340 6.5 101860 68
2006-04-10 08:36:55 51°21.273 3°4.026 -999 339 6.5 101860 68
2006-04-10 08:37:00 51°21.28 3°4.052 -999 344 6.5 101860 68
2006-04-10 08:37:05 51°21.287 3°4.077 -999 345 6.5 101850 67
2006-04-10 08:37:10 51°21.294 3°4.102 -999 341 6.5 101850 67
2006-04-10 08:37:14 51°21.299 3°4.123 -999 347 6.5 101850 68
2006-04-10 08:37:20 51°21.307 3°4.152 -999 343 6.5 101850 68
2006-04-10 08:37:25 51°21.314 3°4.178 -999 347 6.5 101850 68
2006-04-10 08:37:30 51°21.321 3°4.202 -999 345 6.5 101850 68
2006-04-10 08:37:34 51°21.326 3°4.222 -999 346 6.5 101860 68
2006-04-10 08:37:40 51°21.334 3°4.253 -999 346 6.5 101860 68
2006-04-10 08:37:44 51°21.34 3°4.272 -999 350 6.5 101850 68
2006-04-10 08:37:50 51°21.347 3°4.303 -999 345 6.5 101850 68
2006-04-10 08:37:55 51°21.352 3°4.329 -999 346 6.5 101860 68
2006-04-10 08:38:00 51°21.359 3°4.354 -999 341 6.5 101860 68
2006-04-10 08:38:04 51°21.364 3°4.374 -999 341 6.5 101840 67
2006-04-10 08:38:10 51°21.37 3°4.406 -999 340 6.5 101840 67
2006-04-10 08:38:14 51°21.375 3°4.426 -999 339 6.4 101850 66
2006-04-10 08:38:20 51°21.381 3°4.458 -999 339 6.4 101850 66
2006-04-10 08:38:24 51°21.385 3°4.478 -999 340 6.4 101840 66
2006-04-10 08:38:30 51°21.392 3°4.509 -999 343 6.4 101840 66
2006-04-10 08:38:35 51°21.398 3°4.535 -999 340 6.4 101850 66
2006-04-10 08:38:40 51°21.403 3°4.561 -999 338 6.4 101850 66
2006-04-10 08:38:44 51°21.407 3°4.581 -999 338 6.4 101850 66
2006-04-10 08:38:50 51°21.413 3°4.613 -999 336 6.4 101850 66
2006-04-10 08:38:54 51°21.417 3°4.633 -999 336 6.4 101850 65
2006-04-10 08:39:00 51°21.423 3°4.666 -999 339 6.4 101850 65
2006-04-10 08:39:05 51°21.428 3°4.692 -999 336 6.4 101850 65
2006-04-10 08:39:10 51°21.433 3°4.718 -999 341 6.4 101850 65
2006-04-10 08:39:14 51°21.438 3°4.739 -999 337 6.4 101850 65
2006-04-10 08:39:20 51°21.443 3°4.77 -999 341 6.4 101850 65
2006-04-10 08:39:24 51°21.448 3°4.791 -999 339 6.4 101850 66
2006-04-10 08:39:30 51°21.455 3°4.822 -999 336 6.4 101850 66
2006-04-10 08:39:34 51°21.458 3°4.843 -999 342 6.4 101850 66
2006-04-10 08:39:40 51°21.465 3°4.875 -999 343 6.4 101850 66
2006-04-10 08:39:45 51°21.471 3°4.901 -999 336 6.4 101850 66
2006-04-10 08:39:50 51°21.476 3°4.927 -999 345 6.4 101850 66
2006-04-10 08:39:54 51°21.48 3°4.948 -999 341 6.4 101850 65
2006-04-10 08:40:00 51°21.487 3°4.98 -999 336 6.4 101850 65
2006-04-10 08:40:05 51°21.491 3°5.007 -999 338 6.4 101850 66
2006-04-10 08:40:10 51°21.496 3°5.033 -999 342 6.4 101850 66
2006-04-10 08:40:14 51°21.501 3°5.054 -999 338 6.4 101850 67
2006-04-10 08:40:18 51°21.505 3°5.075 -999 338 6.4 101850 67
2006-04-10 08:40:24 51°21.511 3°5.107 -999 342 6.4 101830 66
2006-04-10 08:40:30 51°21.518 3°5.138 -999 343 6.4 101830 66
2006-04-10 08:40:34 51°21.522 3°5.16 -999 337 6.4 101850 66
2006-04-10 08:40:40 51°21.529 3°5.19 -999 338 6.4 101850 66
2006-04-10 08:40:44 51°21.532 3°5.212 -999 337 6.4 101850 66
2006-04-10 08:40:50 51°21.539 3°5.243 -999 335 6.4 101850 66
2006-04-10 08:40:55 51°21.544 3°5.27 -999 337 6.4 101860 67
2006-04-10 08:41:00 51°21.55 3°5.296 -999 338 6.4 101860 67
2006-04-10 08:41:05 51°21.555 3°5.322 -999 339 6.4 101850 66
2006-04-10 08:41:10 51°21.561 3°5.349 -999 339 6.4 101850 66
2006-04-10 08:41:14 51°21.565 3°5.37 -999 332 6.4 101840 65
2006-04-10 08:41:20 51°21.572 3°5.401 -999 337 6.4 101840 65
2006-04-10 08:41:24 51°21.576 3°5.422 -999 337 6.4 101860 66
2006-04-10 08:41:30 51°21.583 3°5.453 -999 333 6.4 101860 66
2006-04-10 08:41:34 51°21.587 3°5.474 -999 333 6.3 101840 66
2006-04-10 08:41:40 51°21.594 3°5.505 -999 337 6.3 101840 66
2006-04-10 08:41:45 51°21.599 3°5.531 -999 338 6.3 101840 65
2006-04-10 08:41:50 51°21.605 3°5.558 -999 341 6.3 101840 65
2006-04-10 08:41:54 51°21.61 3°5.578 -999 339 6.3 101850 65
2006-04-10 08:42:00 51°21.615 3°5.61 -999 342 6.3 101850 65
2006-04-10 08:42:05 51°21.621 3°5.637 -999 342 6.3 101850 65
2006-04-10 08:42:10 51°21.627 3°5.661 -999 341 6.3 101850 65
2006-04-10 08:42:14 51°21.63 3°5.683 -999 340 6.3 101850 67
2006-04-10 08:42:20 51°21.638 3°5.713 -999 338 6.3 101850 67
2006-04-10 08:42:25 51°21.642 3°5.739 -999 333 6.4 101860 67
2006-04-10 08:42:30 51°21.647 3°5.766 -999 343 6.4 101860 67
2006-04-10 08:42:35 51°21.653 3°5.791 -999 341 6.4 101870 68
2006-04-10 08:42:40 51°21.659 3°5.818 -999 340 6.4 101870 68
2006-04-10 08:42:44 51°21.662 3°5.838 -999 344 6.4 101850 68
2006-04-10 08:42:50 51°21.669 3°5.869 -999 339 6.4 101850 68
2006-04-10 08:42:55 51°21.675 3°5.894 -999 333 6.4 101850 68
2006-04-10 08:43:00 51°21.679 3°5.921 -999 337 6.4 101850 68
2006-04-10 08:43:05 51°21.684 3°5.946 -999 342 6.4 101840 68
2006-04-10 08:43:10 51°21.69 3°5.973 -999 342 6.4 101840 68
2006-04-10 08:43:14 51°21.694 3°5.993 -999 341 6.4 101850 68
2006-04-10 08:43:20 51°21.7 3°6.026 -999 342 6.4 101850 68
2006-04-10 08:43:24 51°21.705 3°6.045 -999 343 6.4 101860 68
2006-04-10 08:43:28 51°21.708 3°6.066 -999 341 6.4 101860 68
2006-04-10 08:43:34 51°21.714 3°6.097 -999 338 6.4 101850 67
2006-04-10 08:43:40 51°21.721 3°6.128 -999 343 6.4 101850 67
2006-04-10 08:43:45 51°21.726 3°6.155 -999 337 6.4 101840 67
2006-04-10 08:43:50 51°21.731 3°6.18 -999 337 6.4 101840 67
2006-04-10 08:43:54 51°21.734 3°6.202 -999 336 6.4 101850 67
2006-04-10 08:44:00 51°21.74 3°6.234 -999 337 6.4 101850 67
2006-04-10 08:44:05 51°21.745 3°6.261 -999 340 6.4 101860 67
2006-04-10 08:44:10 51°21.75 3°6.286 -999 340 6.4 101860 67
2006-04-10 08:44:14 51°21.753 3°6.309 -999 339 6.4 101850 68
2006-04-10 08:44:19 51°21.758 3°6.334 -999 346 6.4 101850 68
2006-04-10 08:44:24 51°21.762 3°6.362 -999 339 6.4 101850 68
2006-04-10 08:44:30 51°21.767 3°6.394 -999 346 6.4 101850 68
2006-04-10 08:44:35 51°21.772 3°6.42 -999 339 6.4 101860 68
2006-04-10 08:44:40 51°21.776 3°6.448 -999 342 6.4 101860 68